• In Österreich
  • Länderverzeichnis
  • Für 7 Tage
  • Wassertemperatur
  • Satellitenkarten
  • Wetterkarte
  • News
  • Widgets
  • user-avatar
    Anmelden

    Stündliche Wetter Chinsali

    Heute, 17 Oktober, Mittwoch

    Zeit Temperatur Niederschläge Wind Luftdruck Luftfeuchtigkeit
    00:00 +24°C° 0 mm 2 m/S 646 mmHg 42%
    01:00 +24°C° 0 mm 2 m/S 646 mmHg 45%
    02:00 +22°C° 0 mm 3 m/S 646 mmHg 48%
    03:00 +21°C° 0 mm 3 m/S 646 mmHg 52%
    04:00 +21°C° 0 mm 3 m/S 646 mmHg 56%
    05:00 +20°C° 0 mm 2 m/S 646 mmHg 59%
    06:00 +22°C° 0 mm 3 m/S 647 mmHg 54%
    07:00 +25°C° 0 mm 3 m/S 647 mmHg 49%
    08:00 +26°C° 0 mm 3 m/S 648 mmHg 43%
    09:00 +29°C° 0 mm 3 m/S 648 mmHg 37%
    10:00 +31°C° 0 mm 3 m/S 648 mmHg 31%
    11:00 +34°C° 0 mm 3 m/S 648 mmHg 24%
    12:00 +34°C° 0 mm 3 m/S 647 mmHg 23%
    13:00 +35°C° 0 mm 2 m/S 647 mmHg 22%
    14:00 +35°C° 0 mm 2 m/S 646 mmHg 21%
    15:00 +34°C° 0 mm 2 m/S 646 mmHg 22%
    16:00 +34°C° 0 mm 2 m/S 645 mmHg 23%
    17:00 +32°C° 0 mm 2 m/S 645 mmHg 24%
    18:00 +31°C° 0 mm 2 m/S 645 mmHg 26%
    19:00 +29°C° 0 mm 3 m/S 646 mmHg 27%
    20:00 +28°C° 0 mm 3 m/S 646 mmHg 29%
    21:00 +27°C° 0 mm 3 m/S 646 mmHg 31%
    22:00 +26°C° 0 mm 2 m/S 646 mmHg 32%
    23:00 +25°C° 0 mm 2 m/S 646 mmHg 34%

    Morgen, 18 Oktober, Donnerstag

    Zeit Temperatur Niederschläge Wind Luftdruck Luftfeuchtigkeit
    00:00 +24°C° 0 mm 2 m/S 645 mmHg 36%
    01:00 +24°C° 0 mm 2 m/S 645 mmHg 39%
    02:00 +23°C° 0 mm 2 m/S 644 mmHg 41%
    03:00 +21°C° 0 mm 2 m/S 644 mmHg 44%
    04:00 +21°C° 0 mm 2 m/S 645 mmHg 47%
    05:00 +21°C° 0 mm 2 m/S 645 mmHg 50%
    06:00 +23°C° 0 mm 2 m/S 646 mmHg 47%
    07:00 +25°C° 0 mm 2 m/S 647 mmHg 44%
    08:00 +27°C° 0 mm 2 m/S 647 mmHg 41%
    09:00 +29°C° 0 mm 2 m/S 648 mmHg 35%
    10:00 +32°C° 0 mm 2 m/S 648 mmHg 29%
    11:00 +35°C° 0 mm 2 m/S 648 mmHg 24%
    12:00 +35°C° 0 mm 2 m/S 647 mmHg 24%
    13:00 +33°C° 0 mm 1 m/S 646 mmHg 24%
    14:00 +33°C° 0 mm 1 m/S 645 mmHg 24%
    15:00 +32°C° 0 mm 1 m/S 645 mmHg 26%
    16:00 +32°C° 0 mm 1 m/S 645 mmHg 27%
    17:00 +31°C° 0 mm 2 m/S 645 mmHg 28%
    18:00 +30°C° 0 mm 2 m/S 645 mmHg 31%
    19:00 +29°C° 0 mm 1 m/S 645 mmHg 33%
    20:00 +28°C° 0 mm 1 m/S 646 mmHg 36%
    21:00 +27°C° 0 mm 1 m/S 646 mmHg 38%
    22:00 +26°C° 0 mm 1 m/S 646 mmHg 39%
    23:00 +26°C° 0 mm 1 m/S 646 mmHg 41%

    übermorgen, 19 Oktober, Freitag

    Zeit Temperatur Niederschläge Wind Luftdruck Luftfeuchtigkeit
    00:00 +25°C° 0 mm 1 m/S 645 mmHg 44%
    01:00 +24°C° 0 mm 2 m/S 645 mmHg 46%
    02:00 +24°C° 0 mm 2 m/S 644 mmHg 48%
    03:00 +23°C° 0 mm 1 m/S 645 mmHg 50%
    04:00 +23°C° 0 mm 1 m/S 645 mmHg 52%
    05:00 +23°C° 0 mm 1 m/S 645 mmHg 54%
    06:00 +24°C° 0 mm 2 m/S 646 mmHg 50%
    07:00 +26°C° 0 mm 2 m/S 647 mmHg 46%
    08:00 +28°C° 0 mm 2 m/S 648 mmHg 42%
    09:00 +30°C° 0 mm 2 m/S 648 mmHg 36%
    10:00 +33°C° 0 mm 3 m/S 648 mmHg 30%
    11:00 +35°C° 0 mm 3 m/S 648 mmHg 24%
    12:00 +35°C° 0 mm 3 m/S 648 mmHg 23%
    13:00 +36°C° 0 mm 3 m/S 647 mmHg 22%
    14:00 +36°C° 0 mm 3 m/S 646 mmHg 21%
    15:00 +35°C° 0 mm 3 m/S 646 mmHg 22%
    16:00 +34°C° 0 mm 3 m/S 646 mmHg 24%
    17:00 +33°C° 0 mm 3 m/S 645 mmHg 25%
    18:00 +31°C° 0 mm 3 m/S 646 mmHg 28%
    19:00 +30°C° 0 mm 3 m/S 646 mmHg 30%
    20:00 +28°C° 0 mm 3 m/S 647 mmHg 33%
    21:00 +27°C° 0 mm 3 m/S 647 mmHg 37%
    22:00 +26°C° 0 mm 3 m/S 646 mmHg 41%
    23:00 +25°C° 0 mm 3 m/S 646 mmHg 45%

    20 Oktober, Samstag

    Zeit Temperatur Niederschläge Wind Luftdruck Luftfeuchtigkeit
    00:00 +25°C° 0 mm 3 m/S 646 mmHg 48%
    01:00 +24°C° 0 mm 3 m/S 645 mmHg 51%
    02:00 +23°C° 0 mm 2 m/S 645 mmHg 54%
    03:00 +23°C° 0 mm 2 m/S 645 mmHg 57%
    04:00 +21°C° 0 mm 2 m/S 645 mmHg 60%
    05:00 +21°C° 0 mm 2 m/S 646 mmHg 63%
    06:00 +24°C° 0 mm 3 m/S 647 mmHg 56%
    07:00 +26°C° 0 mm 3 m/S 648 mmHg 50%
    08:00 +27°C° 0 mm 3 m/S 649 mmHg 44%
    09:00 +30°C° 0 mm 3 m/S 649 mmHg 38%
    10:00 +33°C° 0 mm 3 m/S 649 mmHg 32%
    11:00 +35°C° 0 mm 3 m/S 649 mmHg 25%
    12:00 +34°C° 0 mm 3 m/S 648 mmHg 25%
    13:00 +34°C° 0 mm 3 m/S 647 mmHg 24%
    14:00 +34°C° 0 mm 3 m/S 646 mmHg 24%
    15:00 +33°C° 0 mm 3 m/S 646 mmHg 26%
    16:00 +31°C° 0 mm 3 m/S 646 mmHg 27%
    17:00 +31°C° 0 mm 2 m/S 646 mmHg 28%
    18:00 +30°C° 0 mm 3 m/S 646 mmHg 31%
    19:00 +28°C° 0 mm 3 m/S 646 mmHg 34%
    20:00 +27°C° 0 mm 3 m/S 647 mmHg 37%
    21:00 +26°C° 0 mm 3 m/S 647 mmHg 40%
    22:00 +26°C° 0 mm 3 m/S 647 mmHg 44%
    23:00 +25°C° 0 mm 3 m/S 647 mmHg 47%

    21 Oktober, Sonntag

    Zeit Temperatur Niederschläge Wind Luftdruck Luftfeuchtigkeit
    00:00 +24°C° 0 mm 3 m/S 646 mmHg 50%
    01:00 +22°C° 0 mm 3 m/S 646 mmHg 53%
    02:00 +22°C° 0 mm 3 m/S 645 mmHg 56%
    03:00 +21°C° 0 mm 3 m/S 646 mmHg 59%
    04:00 +21°C° 0 mm 2 m/S 646 mmHg 61%
    05:00 +20°C° 0 mm 2 m/S 646 mmHg 63%
    06:00 +22°C° 0 mm 3 m/S 647 mmHg 56%
    07:00 +25°C° 0 mm 3 m/S 648 mmHg 49%
    08:00 +27°C° 0 mm 3 m/S 649 mmHg 42%
    09:00 +29°C° 0 mm 3 m/S 649 mmHg 37%
    10:00 +31°C° 0 mm 3 m/S 649 mmHg 31%
    11:00 +34°C° 0 mm 3 m/S 649 mmHg 26%
    12:00 +34°C° 0 mm 3 m/S 648 mmHg 26%
    13:00 +33°C° 0 mm 3 m/S 647 mmHg 26%
    14:00 +33°C° 0 mm 3 m/S 646 mmHg 26%
    15:00 +31°C° 0 mm 2 m/S 646 mmHg 27%
    16:00 +31°C° 0 mm 2 m/S 646 mmHg 29%
    17:00 +30°C° 0 mm 2 m/S 646 mmHg 30%
    18:00 +29°C° 0 mm 3 m/S 646 mmHg 32%
    19:00 +28°C° 0 mm 3 m/S 647 mmHg 33%
    20:00 +27°C° 0 mm 3 m/S 647 mmHg 35%
    21:00 +26°C° 0 mm 3 m/S 647 mmHg 36%
    22:00 +26°C° 0 mm 4 m/S 647 mmHg 38%
    23:00 +25°C° 0 mm 4 m/S 647 mmHg 39%

    22 Oktober, Montag

    Zeit Temperatur Niederschläge Wind Luftdruck Luftfeuchtigkeit
    00:00 +23°C° 0 mm 4 m/S 647 mmHg 44%
    01:00 +22°C° 0 mm 4 m/S 646 mmHg 49%
    02:00 +21°C° 0 mm 5 m/S 646 mmHg 54%
    03:00 +21°C° 0 mm 5 m/S 646 mmHg 58%
    04:00 +20°C° 0 mm 4 m/S 646 mmHg 63%
    05:00 +20°C° 0 mm 4 m/S 647 mmHg 67%
    06:00 +21°C° 0 mm 5 m/S 648 mmHg 63%
    07:00 +22°C° 0 mm 5 m/S 648 mmHg 58%
    08:00 +23°C° 0 mm 6 m/S 649 mmHg 54%
    09:00 +26°C° 0 mm 6 m/S 649 mmHg 48%
    10:00 +28°C° 0 mm 5 m/S 649 mmHg 42%
    11:00 +30°C° 0 mm 5 m/S 649 mmHg 36%
    12:00 +30°C° 0 mm 5 m/S 648 mmHg 34%
    13:00 +32°C° 0 mm 5 m/S 648 mmHg 31%
    14:00 +33°C° 0 mm 5 m/S 647 mmHg 29%
    15:00 +30°C° 0 mm 5 m/S 647 mmHg 32%
    16:00 +29°C° 0 mm 5 m/S 647 mmHg 35%
    17:00 +28°C° 0 mm 5 m/S 646 mmHg 38%
    18:00 +27°C° 0 mm 5 m/S 647 mmHg 42%
    19:00 +26°C° 0 mm 5 m/S 647 mmHg 45%
    20:00 +23°C° 0 mm 5 m/S 648 mmHg 49%
    21:00 +22°C° 0 mm 5 m/S 648 mmHg 53%
    22:00 +21°C° 0 mm 5 m/S 648 mmHg 57%
    23:00 +20°C° 0 mm 6 m/S 648 mmHg 62%
    Mehr zeigen